Theta_e
284 282 284 282 282 282 280 283 280 283 279 284 287 287 287 287 288 288 289 292 294 295 297 297 298 299 299 298 297 296 296 295 295 295 296 296 297 297 298 298 299 300 300 301
281 284 283 281 283 283 282 283 283 282 278 287 288 288 289 290 288 288 289 290 292 294 295 297 297 299 299 296 296 296 295 295 295 295 296 296 296 296 297 297 299 300 300 300
276 283 282 279 282 282 283 285 285 281 286 288 289 290 289 289 290 290 289 289 291 295 296 298 298 300 298 297 296 296 295 294 294 295 295 296 296 296 296 297 298 299 299 300
273 276 273 280 287 287 285 287 288 288 288 289 289 290 291 291 291 291 291 290 290 291 296 296 297 298 298 297 296 295 294 293 294 294 294 294 295 296 296 297 297 298 298 299
272 266 277 281 284 285 283 283 288 287 289 289 289 289 290 290 291 293 293 292 292 292 294 296 298 299 298 295 295 294 293 293 294 294 293 293 294 294 295 296 295 297 298 299
271 270 263 276 285 289 291 281 291 290 289 289 288 283 289 292 293 295 295 293 292 291 292 295 297 298 297 295 294 293 293 293 294 294 294 294 294 294 292 294 293 294 295 297
272 270 273 280 286 288 277 281 287 288 288 288 287 291 293 292 292 293 294 293 291 290 292 294 295 296 294 293 293 294 291 291 292 293 293 294 293 290 292 291 290 290 291 292
272 270 268 282 280 278 282 285 287 288 288 288 289 290 290 290 290 292 292 291 289 289 291 292 293 295 293 292 294 290 290 289 289 289 291 291 290 288 288 289 288 288 289 288
274 274 281 282 283 286 286 286 287 288 288 289 290 289 289 289 290 290 290 291 288 288 287 287 290 294 293 292 288 288 289 288 288 287 287 288 289 288 288 288 291 290 290 290
274 278 280 282 283 284 285 286 288 288 289 289 289 289 288 288 289 289 288 288 285 284 285 286 288 290 292 286 288 289 288 287 287 288 286 286 286 288 289 290 290 289 289 289
274 278 280 282 284 284 286 288 288 288 290 289 289 289 288 288 287 287 287 284 283 286 286 287 285 283 284 287 288 288 287 287 287 288 288 287 288 289 290 290 292 290 290 290
272 280 280 282 284 286 285 287 289 289 288 286 288 288 286 286 287 286 286 281 282 282 282 280 283 283 284 287 289 288 287 287 288 288 288 288 288 287 290 291 291 291 291 290
280 283 283 285 283 285 287 287 289 287 287 286 285 287 286 286 284 282 280 280 281 283 280 281 283 285 286 287 288 288 288 287 288 288 288 287 287 288 286 288 290 290 290 290
285 285 283 284 284 285 284 284 282 280 280 283 284 280 282 283 276 278 281 281 279 279 281 284 285 285 286 287 288 287 288 287 288 288 288 288 288 287 287 286 285 285 288 289
284 286 286 287 287 284 283 281 279 281 278 277 276 278 276 281 280 281 276 277 279 280 284 285 285 285 286 287 287 287 287 287 288 288 288 288 287 287 286 286 285 284 285 287
280 280 278 280 283 282 281 279 282 283 281 279 277 276 278 277 275 274 280 281 283 283 285 285 285 285 286 287 287 287 287 286 287 287 286 286 286 286 285 284 284 284 283 284
273 274 272 271 272 275 277 280 283 284 282 279 279 275 273 274 276 281 282 285 285 285 285 286 285 286 286 287 287 287 286 286 286 286 286 286 286 285 285 284 281 280 279 283
264 267 269 270 272 271 272 271 273 275 278 278 274 273 280 281 281 281 282 281 281 283 284 285 285 286 286 286 286 286 286 285 285 285 285 285 285 284 283 282 281 280 282 284
258 260 262 264 264 265 266 269 269 271 272 273 271 278 278 281 281 279 277 278 279 278 278 282 284 285 284 284 285 285 284 283 283 283 284 283 282 282 281 280 279 279 279 278
254 255 256 257 258 259 265 265 268 271 275 274 276 279 279 280 277 275 276 277 279 279 277 281 282 283 282 283 284 284 283 282 282 281 281 281 281 280 279 278 276 275 274 273
253 253 254 255 258 260 261 265 267 270 279 280 280 280 279 277 276 276 275 273 272 276 279 280 281 281 281 282 282 282 281 280 280 279 278 277 275 275 274 273 272 271 270 269
253 253 255 256 257 259 262 266 269 272 278 279 280 278 275 274 275 275 275 273 273 276 278 278 278 278 278 279 279 278 278 278 277 276 275 275 273 272 271 270 269 268 267 267
254 255 256 256 257 259 263 267 273 279 279 279 277 275 275 275 275 271 268 271 273 273 274 275 276 276 276 276 275 275 274 274 274 273 272 272 271 270 269 268 267 266 265 264
255 256 257 258 258 261 264 268 275 278 278 277 276 276 274 270 268 271 271 271 272 273 273 274 275 275 274 273 273 272 272 271 270 270 269 269 269 268 267 266 264 264 263 262
254 257 258 259 259 264 268 268 272 272 271 270 271 272 272 273 269 269 270 271 272 271 271 272 273 272 271 271 271 270 270 269 269 268 268 267 266 265 264 264 263 261 261 260
255 257 259 261 264 263 264 268 268 267 266 266 267 267 268 269 269 270 270 269 269 269 269 270 269 269 268 268 267 267 266 266 266 266 266 265 264 263 262 261 261 261 260 259
257 259 259 261 262 263 265 267 267 265 266 267 266 267 267 267 267 267 267 267 267 267 267 267 267 267 267 266 265 265 265 265 265 265 264 264 263 263 262 261 260 259 258 257
Wind_Speed
19 4 14 9 16 20 16 25 10 17 11 8 6 6 3 1 4 5 5 7 7 7 8 8 8 8 8 9 10 11 11 11 10 8 7 7 7 7 7 7 6 6 6 5
25 13 12 7 18 18 22 19 20 11 4 8 4 2 4 5 5 6 8 9 9 8 8 10 11 11 11 11 11 12 13 12 10 9 9 9 7 8 7 7 6 6 6 6
4 12 8 15 19 22 23 24 26 20 24 5 12 13 5 5 7 8 8 8 10 12 12 12 13 13 13 13 11 12 12 10 11 11 11 10 9 9 9 8 6 6 6 6
3 3 11 2 6 19 25 19 24 24 14 7 7 8 10 5 5 6 7 8 9 8 9 9 8 9 9 11 12 12 12 12 12 12 11 9 10 11 9 8 8 7 6 6
3 5 5 2 4 16 17 20 21 15 12 7 5 5 15 5 5 8 7 9 10 9 8 10 13 13 13 12 13 12 13 13 13 13 12 12 12 11 9 7 6 7 6 6
3 4 8 7 6 8 13 22 19 10 7 8 7 7 14 8 10 13 13 7 9 9 6 10 13 13 14 14 14 15 14 14 13 13 13 13 12 10 5 6 6 5 6 6
13 8 5 6 4 8 1 4 3 6 2 3 5 11 5 5 8 7 9 11 5 7 11 14 9 14 15 13 18 14 11 11 12 12 13 13 10 5 7 6 6 6 6 5
6 11 17 7 1 7 8 6 5 3 3 4 3 6 4 4 7 10 10 8 6 7 10 10 13 14 14 17 13 11 12 12 10 9 7 6 9 6 6 8 7 6 6 4
11 8 6 8 11 13 12 18 7 5 8 8 5 7 5 4 6 7 10 10 5 9 8 7 11 15 16 14 12 12 13 13 12 10 9 9 10 8 6 7 8 7 7 7
8 7 7 13 7 8 9 12 13 14 20 9 9 9 8 6 8 6 7 7 5 6 8 10 10 12 11 11 12 14 13 12 11 12 10 7 6 7 8 8 9 7 7 6
13 14 10 19 17 14 16 19 20 9 16 12 10 11 10 7 8 8 7 4 5 10 10 12 10 8 8 11 14 13 12 10 10 9 11 9 6 8 9 5 9 10 9 8
9 20 16 24 19 18 19 17 16 13 11 7 8 11 7 7 7 6 9 4 5 7 6 6 9 10 11 12 14 15 12 10 10 10 9 9 9 6 8 11 10 8 12 9
16 16 16 20 2 5 19 21 18 12 10 9 8 10 9 9 6 6 5 8 8 11 6 8 9 11 11 11 13 15 14 13 9 10 10 10 10 10 10 8 12 11 13 13
5 7 3 3 6 8 9 6 8 7 5 4 4 3 8 10 2 7 10 10 8 8 8 10 11 11 12 14 13 13 11 14 12 10 10 10 10 9 9 10 9 5 8 9
7 7 8 10 8 8 5 5 2 2 4 2 3 6 4 11 11 9 5 6 8 7 9 11 12 13 13 15 17 17 14 10 9 9 9 11 11 10 8 8 8 8 6 6
2 4 2 6 7 5 2 2 3 6 4 4 6 5 7 7 6 3 6 9 13 12 11 12 12 12 13 16 16 15 14 18 14 11 10 10 10 10 10 9 9 7 6 6
2 4 4 3 4 3 7 6 11 10 9 8 9 7 6 5 4 6 8 7 6 7 10 12 12 13 15 15 16 12 12 13 17 12 12 11 9 9 10 10 9 6 4 4
7 7 7 6 6 7 6 3 3 5 7 8 4 5 6 8 8 8 7 7 6 6 8 9 11 13 15 14 13 12 13 13 13 12 10 11 10 10 9 10 9 9 7 8
7 9 9 8 6 7 8 8 5 4 5 5 4 8 7 7 7 7 7 8 10 11 6 9 13 14 14 16 16 12 13 13 12 11 11 13 11 10 10 10 9 7 7 7
9 8 8 7 7 5 9 8 9 8 6 6 5 5 6 6 6 7 9 11 11 6 8 10 12 12 12 15 17 12 14 14 14 12 11 10 11 10 9 10 10 7 7 6
9 9 10 9 11 10 7 8 8 10 10 7 9 11 10 7 8 10 9 6 1 11 10 14 12 9 9 11 12 11 12 13 13 12 11 10 11 10 10 8 8 8 7 6
8 9 10 11 10 13 9 9 10 10 11 9 10 7 10 10 9 8 5 7 7 14 9 8 9 12 11 13 11 11 11 12 12 10 11 10 10 10 9 9 9 7 7 7
10 11 11 11 11 13 13 12 12 10 10 11 10 10 10 7 9 10 7 6 7 9 8 8 14 18 17 10 10 11 11 12 12 10 9 10 8 9 9 9 8 8 7 7
13 12 12 12 10 11 13 12 10 7 5 7 10 11 10 8 4 4 9 10 14 13 12 12 14 16 16 10 11 9 10 12 11 11 9 12 9 9 8 8 8 6 6 6
12 14 13 11 9 10 12 5 4 5 8 8 7 7 7 4 5 8 9 10 17 14 12 17 18 17 12 10 9 10 10 9 11 11 9 9 10 10 8 8 7 6 6 6
12 10 9 12 7 4 2 1 4 5 6 7 6 6 7 7 8 9 9 12 12 16 11 9 10 11 9 10 11 10 12 11 10 10 11 9 10 9 9 8 7 7 6 6
9 9 7 4 3 1 1 3 5 5 5 7 9 6 8 8 9 10 13 11 11 11 11 11 10 10 10 10 11 13 10 8 10 10 10 10 9 7 7 6 6 6 5 5
Wind_Direction
230 186 182 186 203 203 206 224 190 228 205 264 200 198 217 151 126 146 172 175 186 182 177 170 170 174 164 166 160 159 161 165 177 168 157 150 155 159 159 158 169 163 158 173
224 225 209 194 200 200 217 226 240 219 271 218 220 74 161 167 180 209 207 207 197 193 182 180 181 180 172 169 169 167 170 176 166 161 161 164 158 161 158 160 167 161 172 168
289 212 192 234 208 203 217 220 221 228 227 188 274 261 235 235 195 219 233 217 201 206 198 190 185 183 182 178 164 172 173 170 165 165 169 171 165 161 167 171 160 172 175 168
268 10 223 264 267 199 216 221 229 241 223 187 198 261 295 210 194 244 218 233 227 207 199 191 182 182 172 168 173 175 177 174 171 170 173 163 165 173 168 168 172 168 173 172
231 201 326 331 323 209 186 234 231 250 246 219 213 336 274 258 206 238 240 221 224 206 195 176 184 181 171 175 176 178 184 181 177 173 170 170 175 176 173 163 170 172 168 169
286 237 197 222 137 34 224 248 230 210 220 204 149 209 250 232 216 231 235 216 217 209 167 174 193 174 175 181 181 190 185 180 173 175 177 180 178 174 152 163 165 149 164 167
215 226 267 252 158 93 296 255 61 119 146 70 198 242 307 256 246 236 231 236 196 160 179 201 172 173 185 181 200 188 167 169 174 174 173 177 168 155 150 138 142 156 160 163
207 227 231 208 343 198 217 298 283 147 190 161 213 299 311 336 283 275 262 261 200 180 197 192 170 177 188 197 188 157 156 159 163 163 158 153 157 142 147 145 143 152 150 143
211 225 175 202 206 235 238 260 252 209 203 175 222 259 251 256 263 278 277 271 252 199 191 175 181 185 190 195 153 152 156 163 156 146 147 151 152 151 145 149 164 167 175 172
252 243 221 220 223 214 205 239 247 246 263 181 210 231 237 203 272 260 266 261 228 181 191 195 192 193 197 153 154 156 160 159 154 153 143 139 133 149 157 169 172 169 172 176
232 232 253 245 234 235 242 241 250 218 240 189 205 240 234 230 235 258 257 252 187 211 206 207 179 160 149 154 152 156 151 147 148 145 149 148 152 160 168 180 178 173 182 182
213 218 219 236 230 220 224 218 218 205 214 221 199 244 261 237 239 252 269 203 204 214 206 176 172 156 152 157 156 149 148 151 157 153 150 149 148 122 122 155 162 157 169 158
225 223 213 236 291 212 203 212 209 175 195 218 204 225 248 254 220 225 237 217 196 206 191 159 160 159 156 155 152 156 156 152 149 152 151 151 151 144 133 106 115 131 131 128
176 140 215 172 247 246 213 184 154 167 147 216 231 209 253 264 200 207 217 228 155 163 165 165 163 172 161 152 148 148 149 153 151 153 151 148 147 141 133 135 135 128 102 123
178 192 210 198 207 254 195 172 132 113 104 309 232 226 224 266 256 236 180 203 133 152 168 171 173 171 165 159 156 150 146 152 149 146 149 145 138 134 131 132 132 127 120 98
270 243 279 203 209 164 231 10 174 224 210 222 231 240 234 227 245 214 181 186 155 188 183 180 181 165 163 166 158 150 149 145 146 144 142 141 142 142 140 140 139 136 141 140
62 334 340 290 281 242 206 189 199 209 222 239 226 207 181 186 172 199 191 193 180 183 180 183 175 163 162 172 160 152 145 141 142 139 143 144 145 157 150 141 133 135 125 151
345 319 324 331 328 324 322 317 241 220 218 233 221 161 178 189 196 210 180 125 121 142 181 175 163 163 158 159 155 150 148 144 141 142 136 139 151 147 146 132 136 134 137 131
335 320 316 316 311 301 297 288 279 267 265 215 179 213 206 206 190 199 123 159 168 163 176 161 160 161 156 149 148 144 142 139 133 136 137 141 145 138 137 130 129 134 124 108
315 311 306 298 287 250 279 278 284 281 252 199 211 219 213 202 165 157 186 201 188 150 157 160 150 157 149 147 145 144 140 137 139 130 137 146 135 126 124 128 131 118 102 95
307 299 295 291 292 285 248 253 253 263 270 205 204 212 211 182 177 173 181 177 137 139 168 151 146 146 141 137 136 131 133 136 133 132 142 127 125 125 125 122 116 116 114 110
294 286 286 289 289 286 273 260 241 240 246 224 225 190 167 177 170 176 197 180 159 144 152 137 128 135 128 130 118 123 124 127 127 126 123 128 129 128 124 125 124 121 121 123
285 283 280 278 275 278 287 274 262 223 201 204 199 190 189 167 164 162 148 161 141 124 121 114 125 124 118 114 113 107 122 127 117 119 122 119 127 123 124 125 123 125 127 131
294 287 277 274 272 273 267 267 241 215 183 162 170 182 151 134 74 77 114 125 132 118 112 114 119 114 115 107 105 128 126 111 114 106 112 114 115 108 111 117 110 107 110 107
288 286 286 276 265 261 249 211 126 95 95 84 90 95 119 133 134 145 133 128 121 108 105 111 110 102 94 110 124 111 108 112 113 117 120 119 116 114 117 111 116 130 124 114
293 286 287 275 257 258 274 143 121 99 111 105 86 93 96 105 122 123 117 117 112 110 107 113 100 97 108 109 106 111 102 106 110 111 115 112 108 111 114 121 131 130 122 123
290 287 305 308 327 360 61 107 113 113 121 125 112 113 118 122 120 118 118 110 104 103 104 92 88 104 109 114 108 92 91 105 114 110 108 108 110 120 123 124 117 108 107 105